Weather reports worldwide

Advertisment
Capo Caccia, Italy (16522): temperature & dewpoint: 15.05.2019 05:00:00 - 21.05.2019 05:00:00 (CEST)Capo Caccia, Italy (16522): wind speed: 15.05.2019 05:00:00 - 21.05.2019 05:00:00 (CEST)Capo Caccia, Italy (16522): wind direction: 15.05.2019 05:00:00 - 21.05.2019 05:00:00 (CEST)Capo Caccia, Italy (16522): reduced air pressure: 15.05.2019 05:00:00 - 21.05.2019 05:00:00 (CEST)Capo Caccia, Italy (16522): visibility: 15.05.2019 05:00:00 - 21.05.2019 05:00:00 (CEST)Capo Caccia, Italy (16522): sunshine duration: 15.05.2019 05:00:00 - 21.05.2019 05:00:00 (CEST)
Date & Time tt [°C] td [°C] ff [km/h] ff [kn] dd ppp [hPa] vv [km] sd [min]
21.05.2019 05:00:00 15,0 14,4 8 4 SW 1013,3 0,2 -
21.05.2019 04:00:00 15,0 13,9 9 5 S 1013,4 10 -
21.05.2019 03:00:00 14,8 14,2 13 7 S 1013,8 20 -
21.05.2019 02:00:00 14,8 13,7 9 5 S 1014,1 20 -
21.05.2019 01:00:00 14,8 13,8 9 5 SSW 1014,1 20 -
21.05.2019 00:00:00 15,0 13,7 5 3 NNE 1014,1 20 -
20.05.2019 23:00:00 15,0 13,9 8 4 W 1013,8 20 -
20.05.2019 22:00:00 15,0 13,7 8 4 W 1013,1 20 -
20.05.2019 21:00:00 15,4 13,9 11 6 W 1012,8 10 -
20.05.2019 20:00:00 15,6 13,4 13 7 SW 1012,1 10 48
20.05.2019 19:00:00 15,8 13,8 16 9 W 1011,6 15 60
20.05.2019 18:00:00 15,8 13,8 18 10 WSW 1011,3 10 42
20.05.2019 17:00:00 15,6 13,6 18 10 WSW 1011,2 10 0
20.05.2019 16:00:00 15,6 13,3 22 12 W 1011,0 10 0
20.05.2019 15:00:00 14,0 12,1 18 10 W 1011,1 10 0
20.05.2019 14:00:00 14,0 12,1 18 10 WSW 1010,6 10 0
20.05.2019 13:00:00 13,6 11,8 16 9 W 1010,2 15 0
20.05.2019 12:00:00 13,4 11,8 26 14 W 1010,2 4,0 0
20.05.2019 11:00:00 13,6 12,0 29 16 WSW 1009,1 10 0
20.05.2019 10:00:00 13,6 12,3 15 8 SW 1009,0 10 12
20.05.2019 09:00:00 14,0 12,5 29 16 W 1008,6 12 0
20.05.2019 08:00:00 13,6 12,3 24 13 NNW 1008,6 10 0
20.05.2019 07:00:00 13,6 12,0 26 14 W 1008,1 10 -
20.05.2019 06:00:00 13,2 12,4 9 5 ENE 1008,1 10 -
20.05.2019 05:00:00 13,8 12,5 18 10 W 1008,1 10 -
20.05.2019 04:00:00 13,6 12,8 8 4 NNE 1008,1 20 -
20.05.2019 03:00:00 14,0 12,9 9 5 NW 1008,0 20 -
20.05.2019 02:00:00 14,2 12,6 13 7 NNW 1008,2 20 -
20.05.2019 01:00:00 14,8 12,5 15 8 NNW 1008,8 20 -
20.05.2019 00:00:00 15,0 13,9 13 7 NNE 1008,8 20 -
19.05.2019 23:00:00 15,2 14,4 8 4 N 1008,8 20 -
19.05.2019 22:00:00 15,4 14,6 8 4 NNE 1008,4 20 -
19.05.2019 21:00:00 15,8 15,0 5 3 S 1008,0 20 -
19.05.2019 20:00:00 16,4 14,8 8 4 WNW 1007,7 20 60
19.05.2019 19:00:00 16,6 15,0 15 8 NNW 1007,7 20 60
19.05.2019 18:00:00 16,6 15,0 11 6 NNW 1007,7 20 60
19.05.2019 17:00:00 16,6 14,6 9 5 NE 1007,7 20 60
19.05.2019 16:00:00 16,4 14,2 9 5 NNW 1007,7 20 60
19.05.2019 15:00:00 16,2 13,9 8 4 N 1007,8 20 60
19.05.2019 14:00:00 16,2 13,7 9 5 NNW 1007,8 20 60
19.05.2019 13:00:00 16,0 13,8 9 5 NE 1007,8 20 60
19.05.2019 12:00:00 16,4 13,3 8 4 E 1007,1 20 60
19.05.2019 11:00:00 15,0 12,0 15 8 NE 1007,0 20 60
19.05.2019 10:00:00 14,0 11,5 8 4 SE 1007,1 20 60
19.05.2019 09:00:00 12,2 11,4 8 4 NNW 1007,3 15 0
19.05.2019 08:00:00 12,2 10,6 22 12 W 1007,2 10 0
19.05.2019 07:00:00 14,0 12,9 13 7 SSE 1007,0 15 -
19.05.2019 06:00:00 14,0 12,7 8 4 ESE 1007,1 15 -
19.05.2019 05:00:00 13,8 11,9 9 5 S 1007,4 10 -
19.05.2019 04:00:00 13,8 12,2 15 8 NE 1007,9 10 -
19.05.2019 03:00:00 13,8 12,2 16 9 W 1008,2 10 -
19.05.2019 02:00:00 13,8 12,2 15 8 WNW 1008,7 10 -
19.05.2019 01:00:00 13,8 12,0 16 9 W 1009,0 15 -
19.05.2019 00:00:00 14,0 12,4 13 7 WNW 1009,1 10 -
18.05.2019 23:00:00 14,2 12,2 16 9 WNW 1009,0 10 -
18.05.2019 22:00:00 14,4 12,4 21 11 WNW 1008,6 10 -
18.05.2019 21:00:00 14,8 12,8 21 11 W 1008,0 10 0
18.05.2019 20:00:00 14,8 13,2 21 11 WNW 1007,2 20 0
18.05.2019 19:00:00 15,0 13,4 21 11 WNW 1007,0 20 0
18.05.2019 18:00:00 15,2 12,9 22 12 NW 1006,7 20 0
18.05.2019 17:00:00 15,2 13,6 24 13 WNW 1005,9 20 0
18.05.2019 16:00:00 15,8 13,8 28 15 NW 1006,1 20 0
18.05.2019 15:00:00 15,4 13,4 28 15 SSE 1005,1 20 0
18.05.2019 14:00:00 15,6 14,0 29 16 W 1004,8 20 0
18.05.2019 13:00:00 15,4 13,8 15 8 NNW 1004,9 20 6
18.05.2019 12:00:00 15,4 13,8 15 8 NW 1004,7 20 0
18.05.2019 11:00:00 15,0 13,4 24 13 W 1004,1 20 30
18.05.2019 10:00:00 14,6 13,0 26 14 W 1003,9 20 0
18.05.2019 09:00:00 14,6 13,2 28 15 WNW 1003,8 20 0
18.05.2019 08:00:00 14,0 12,1 21 11 WNW 1002,9 20 0
18.05.2019 07:00:00 14,6 13,0 29 16 WNW 1001,9 20 0
18.05.2019 06:00:00 15,4 13,8 31 17 WNW 1000,8 10 -
18.05.2019 05:00:00 15,0 13,4 35 19 W 1000,8 10 -
18.05.2019 04:00:00 15,4 13,8 8 4 SW 1000,9 20 -
18.05.2019 03:00:00 15,2 13,7 8 4 NNE 1000,6 20 -
18.05.2019 02:00:00 15,2 13,6 11 6 ESE 1000,6 20 -
18.05.2019 01:00:00 15,2 13,6 29 16 S 1000,8 20 -
18.05.2019 00:00:00 15,2 13,7 21 11 S 1001,2 20 -
17.05.2019 23:00:00 15,6 14,0 13 7 SSW 1000,7 20 -
17.05.2019 22:00:00 16,0 14,4 18 10 SSW 1000,6 20 -
17.05.2019 21:00:00 16,0 14,4 29 16 S 999,8 12 0
17.05.2019 20:00:00 16,6 15,5 41 22 S 999,8 15 30
17.05.2019 19:00:00 17,0 16,2 39 21 S 999,7 20 0
17.05.2019 18:00:00 17,0 15,4 34 18 SSE 1000,8 10 0
17.05.2019 17:00:00 17,0 16,5 29 16 SSW 1000,8 10 0
17.05.2019 16:00:00 18,2 16,5 22 12 SW 1001,6 20 0
17.05.2019 15:00:00 20,0 13,2 18 10 SSE 1002,1 20 12
17.05.2019 14:00:00 21,0 13,0 11 6 S 1002,0 20 60
17.05.2019 13:00:00 19,6 12,6 8 4 WNW 1003,5 20 30
17.05.2019 12:00:00 20,0 13,2 9 5 ENE 1003,5 20 12
17.05.2019 11:00:00 17,6 11,4 5 3 S 1004,3 20 48
17.05.2019 10:00:00 17,8 12,3 11 6 ESE 1004,7 20 60
17.05.2019 09:00:00 16,4 11,5 9 5 E 1006,0 20 60
17.05.2019 08:00:00 14,4 10,6 8 4 ENE 1006,6 20 60
17.05.2019 07:00:00 13,0 10,9 8 4 ENE 1007,1 20 0
17.05.2019 06:00:00 12,2 10,6 8 4 ENE 1007,2 10 -
17.05.2019 05:00:00 13,0 11,4 8 4 E 1007,3 20 -
17.05.2019 04:00:00 13,4 11,8 9 5 S 1008,4 20 -
17.05.2019 03:00:00 13,4 12,1 13 7 S 1009,1 20 -
17.05.2019 02:00:00 13,0 10,9 9 5 E 1010,2 20 -
17.05.2019 01:00:00 13,0 9,2 13 7 ENE 1010,5 20 -
17.05.2019 00:00:00 13,2 11,4 15 8 ENE 1011,2 20 -
16.05.2019 23:00:00 13,4 10,6 9 5 ENE 1011,2 20 -
16.05.2019 22:00:00 13,4 11,1 11 6 NNE 1011,2 20 -
16.05.2019 21:00:00 14,0 12,0 5 3 NNW 1011,1 20 12
16.05.2019 20:00:00 15,2 13,1 8 4 WNW 1011,2 20 60
16.05.2019 19:00:00 15,2 13,2 9 5 NW 1011,4 20 60
16.05.2019 18:00:00 15,8 13,5 11 6 NW 1011,5 20 60
16.05.2019 17:00:00 16,0 12,9 16 9 WNW 1011,9 20 60
16.05.2019 16:00:00 16,0 12,2 22 12 WNW 1012,4 20 60
16.05.2019 15:00:00 16,0 12,2 22 12 WNW 1012,7 20 60
16.05.2019 14:00:00 16,0 12,7 18 10 WNW 1012,9 20 60
16.05.2019 13:00:00 16,0 12,6 22 12 NW 1012,6 20 60
16.05.2019 12:00:00 15,8 11,6 15 8 NNW 1012,5 20 60
16.05.2019 11:00:00 15,0 11,2 18 10 NW 1012,6 20 60
16.05.2019 10:00:00 16,0 11,4 13 7 NNE 1012,4 20 60
16.05.2019 09:00:00 14,2 12,2 15 8 NE 1012,2 30 60
16.05.2019 08:00:00 14,2 10,4 21 11 N 1012,1 20 60
16.05.2019 07:00:00 12,2 9,8 24 13 NNW 1011,3 20 -
16.05.2019 06:00:00 11,6 10,2 21 11 NNW 1011,3 20 -
16.05.2019 05:00:00 12,0 10,2 15 8 N 1011,3 20 -
16.05.2019 04:00:00 11,0 9,6 16 9 N 1011,5 20 -
16.05.2019 03:00:00 10,0 8,4 11 6 NNE 1011,5 20 -
16.05.2019 02:00:00 9,8 7,6 9 5 NW 1012,0 20 -
16.05.2019 01:00:00 9,8 7,7 11 6 NNE 1012,0 20 -
16.05.2019 00:00:00 9,8 7,6 13 7 N 1012,0 20 -
15.05.2019 23:00:00 10,0 8,1 9 5 NNE 1011,6 20 -
15.05.2019 22:00:00 10,0 8,1 16 9 N 1011,3 20 -
15.05.2019 21:00:00 11,0 8,7 26 14 NNE 1011,1 20 -
15.05.2019 20:00:00 11,6 7,7 28 15 N 1010,3 20 48
15.05.2019 19:00:00 12,4 7,5 29 16 NE 1009,9 30 60
15.05.2019 18:00:00 13,0 7,0 46 25 NE 1009,3 30 60
15.05.2019 17:00:00 13,4 11,5 42 23 NE 1008,5 30 60
15.05.2019 16:00:00 13,8 11,0 50 27 NNE 1007,1 20 -
15.05.2019 15:00:00 13,6 11,3 35 19 NE 1007,1 20 60
15.05.2019 14:00:00 12,0 10,1 41 22 NE 1007,4 20 30
15.05.2019 13:00:00 15,6 13,6 22 12 ESE 1006,1 10 12
15.05.2019 12:00:00 15,4 13,8 15 8 S 1006,9 20 0
15.05.2019 11:00:00 15,4 14,3 16 9 S 1008,2 20 0
15.05.2019 10:00:00 15,8 13,5 8 4 SSE 1010,0 20 30
15.05.2019 09:00:00 15,0 13,7 0 0 N 1010,1 20 0
15.05.2019 08:00:00 14,0 12,7 8 4 NNW 1010,5 20 0
15.05.2019 07:00:00 14,0 12,7 9 5 S 1011,1 10 0
15.05.2019 06:00:00 14,2 13,4 11 6 WSW 1011,4 15 0
15.05.2019 05:00:00 14,4 13,4 11 6 WSW 1011,9 15 -

tt = temperature
td = dewpoint
ff = wind speed
dd = wind direction
ppp = reduced air pressure
vv = visibility
sd = sunshine duration

Next stations